www.pogodaiklimat.ru

Погода и климат >> Архив погоды >> Россия >> Калмыкия >> Комсомольский


ПОГОДА в Комсомольском

  • Прогноз погоды в Комсомольском
  • Монитор погоды в Комсомольском

АРХИВ ПОГОДЫ в Комсомольском

Время (UTC), дата Ветер
(напр.,м/с)
 
Видим.   Явления Облачность Т
(С)
Тd
(С)
f
(%)
Тe
(С)
Тes
(С)
Комфортность P
(гПа)
Po
(гПа)
Тmin
(С)
Tmax
(С)
R
(мм)
R24
(мм)
S
(см)
03 20.06 ЮВ 2 20 км 3/0
[Ac trans]
+24.2 +11.2 44 +26 +27 жарко 1008.8 1009.2 +21.8
06 20.06 Ю 2 20 км 3/0
[Ac trans]
+32.8 +6.2 19 +31 +41 жарко 1009.0 1009.3
09 20.06 Ю 1 20 км 4/0
[Ac trans Ci fib]
+36.7 +4.0 13 +34 +51 опасность
солнечного
удара
1008.2 1008.5
12 20.06 В 2
{11}
20 км 4/4 1000 м
[Cu hum]
+37.3 +4.2 13 +34 +41 очень
жарко
1006.8 1007.1
15 20.06 ЮВ 4
{11}
20 км 8/8 600 м
[Cb cap Ac trans Ci fib]
+33.0 +5.9 18 +31 +31 жарко 1007.5 1007.9 +38.0
18 20.06 ЮВ 2 20 км 9/5 600 м
[Sc Ac trans]
+29.1 +12.0 35 +30 +30 жарко 1009.9 1010.3
21 20.06 В 1 20 км 6/0
[Ac trans]
+26.2 +13.7 46 +28 +28 жарко 1010.0 1010.3
00 21.06 СВ 2 20 км 1/0
[Ac trans]
+23.1 +15.9 64 +28 +28 душно 1010.7 1011.1
03 21.06 СВ 2 20 км 3/0
[Ac trans]
+26.6 +15.0 49 +29 +31 жарко 1011.3 1011.7 +22.1
06 21.06 В 4 20 км 4/0
[Ci]
+31.9 +10.2 26 +31 +38 жарко 1011.8 1012.2
09 21.06 В 4 20 км 6/4 1000 м
[Cu med, cong Ci fib]
+35.1 +5.9 16 +33 +40 жарко 1011.3 1011.7
12 21.06 СВ 3
{10}
20 км 3/3 1000 м
[Cu med, cong]
+36.2 +4.1 14 +33 +40 жарко 1011.0 1011.3
15 21.06 Ю 4 20 км 5/0
[Ac trans Ci fib]
+32.9 +10.1 25 +32 +33 жарко 1011.5 1011.9 +36.7
18 21.06 Ю 2 20 км 3/0
[Ci fib]
+27.9 +8.8 30 +28 +28 жарко 1013.0 1013.4
21 21.06 З 1 20 км ясно +24.2 +9.4 39 +25 +25 комфорт 1012.6 1012.9
00 22.06 С 2 20 км ясно +22.6 +9.9 44 +24 +24 комфорт 1012.3 1012.7
03 22.06 В 3 20 км 1/0
[Ci fib]
+25.6 +8.0 33 +26 +27 жарко 1013.0 1013.4 +21.8
06 22.06 В 5 20 км 3/0
[Ci fib]
+34.5 +3.5 14 +32 +38 жарко 1013.0 1013.4
09 22.06 ЮВ 5-10
{12}
20 км 3/0
[Ci fib]
+37.6 +3.9 12 +34 +44 очень
жарко
1012.1 1012.5
12 22.06 ЮВ 4-11
{12}
20 км 8/0
[Ac trans Ci fib]
+37.6 +4.4 13 +35 +39 очень
жарко
1011.7 1012.0
15 22.06 ЮВ 4
{11}
20 км 8/6 600 м
[Cu hum Ac trans Ci fib]
+34.8 +6.2 17 +33 +33 жарко 1012.1 1012.5 +38.3
18 22.06 ЮВ 1 20 км 8/0
[Ci fib]
+29.9 +7.6 25 +29 +29 жарко 1012.8 1013.2
21 22.06 ЮВ 2 20 км ясно +26.6 +12.6 42 +28 +28 жарко 1012.4 1012.7
00 23.06 В 2 20 км ясно +22.5 +11.3 49 +25 +25 комфорт 1012.7 1013.1
03 23.06 СВ 2 20 км 3/0
[Ci fib]
+26.2 +10.4 37 +27 +29 жарко 1013.1 1013.4 +21.7
06 23.06 В 3 20 км 3/0
[Ac trans Ci fib]
+33.9 +8.3 21 +32 +41 жарко 1012.9 1013.2
09 23.06 В 4 20 км 1/0
[Ci fib]
+38.6 +8.3 16 +37 +49 очень
жарко
1012.9 1012.1
12 23.06 В 7-13
{13}
10 км пыльный позёмок 1/1 1000 м
[Cu hum]
+37.4 +8.8 18 +36 +39 очень
жарко
1011.4 1011.7
15 23.06 ЮВ 4
{14}
20 км 3/0
[Ci fib]
+35.6 +11.1 23 +35 +36 очень
жарко
1011.5 1011.9 +38.9
18 23.06 ЮВ 2 20 км 1/0
[Ci fib]
+30.6 +11.9 32 +31 +31 жарко 1012.5 1012.9
21 23.06 В 2 20 км ясно +26.1 +21.0 74 +33 +33 очень
душно
1012.1 1012.5
00 24.06 В 2 20 км ясно +23.1 +20.9 87 +31 +31 очень
душно
1012.1 1012.5
03 24.06 СВ 2 20 км 4/0
[Ac trans]
+25.1 +21.3 79 +32 +33 очень
душно
1012.1 1012.5 +22.5
06 24.06 В 4 20 км 4/0
[Ac trans]
+35.2 +9.5 21 +34 +40 очень
жарко
1011.8 1012.2
09 24.06 В 5
{10}
20 км 8/0
[Ac und Ci]
+38.1 +7.7 16 +36 +40 очень
жарко
1010.6 1010.9
12 24.06 В 5
{10}
20 км 8/8 600 м
[Sc Ac und]
+38.2 +8.3 16 +36 +37 очень
жарко
1009.4 1009.8
15 24.06 В 3
{11}
20 км 9/9 600 м
[Sc Ac und Ci]
+34.0 +12.7 28 +34 +35 очень
жарко
1009.7 1010.0 +38.5
18 24.06 В 2 20 км 9/9 600 м
[Sc]
+29.4 +15.5 43 +32 +32 душно 1010.8 1011.2
21 24.06 ЮЗ 1 20 км зарница 10/10 480 м
[Cb cap]
+27.4 +20.6 66 +34 +34 очень
душно
1011.6 1012.0
00 25.06 СЗ 1 20 км 10/10 540 м
[Sc]
+26.3 +17.7 59 +31 +31 душно 1010.5 1010.9
03 25.06 З 1 20 км 3/3 600 м
[Sc]
+25.0 +14.4 52 +28 +29 жарко 1011.7 1012.1 +24.8
06 25.06 ЮЗ 2 20 км ясно +34.4 +12.7 27 +35 +47 очень
жарко
1011.8 1012.2
09 25.06 С 3 20 км 1/0
[Ci fib]
+37.8 +8.2 17 +36 +51 опасность
солнечного
удара
1011.7 1012.0
12 25.06 СЗ 4 20 км 1/1 1000 м
[Cu med, cong]
+38.9 +7.3 15 +37 +44 очень
жарко
1010.9 1011.3
15 25.06 СВ 3 20 км 4/3 1000 м
[Cu med, cong Ac trans]
+37.1 +7.6 17 +35 +36 очень
жарко
1011.1 1011.5 +39.6
18 25.06 СВ 2 20 км 1/0
[Ac trans]
+31.3 +7.5 23 +30 +30 жарко 1012.1 1012.5
21 25.06 В 2 20 км 3/0
[Ac trans]
+27.4 +16.2 50 +31 +31 душно 1012.7 1013.1
00 26.06 С 1 20 км зарница 6/3 600 м
[Sc Ac trans]
+25.1 +17.0 61 +29 +29 душно 1013.4 1013.8
03 26.06 СВ 2 20 км 9/3 600 м
[Sc Ac trans Ci]
+24.1 +15.7 59 +27 +28 жарко 1014.9 1015.2 +23.5
06 26.06 СВ 2 20 км 8/3 600 м
[Cu hum Ac trans Ci fib]
+31.4 +13.4 33 +32 +38 жарко 1015.2 1015.6
09 26.06 ЮЗ 2 20 км 8/0
[Ci fib]
+36.6 +10.1 20 +35 +47 очень
жарко
1014.7 1015.1 20
12 26.06 С 2 20 км 8/6 600 м
[Cb calv Ac trans Ci fib]
+36.9 +9.4 19 +35 +39 очень
жарко
1013.6 1013.9
15 26.06 СВ 2
{15}
20 км в посл. час гроза {ливн. осадки} 6/6 300 м
[Cb calv Ac cuf]
+29.5 +15.4 42 +32 +33 душно 1013.2 1013.5 +37.5 0.0
18 26.06 ЮВ 3 20 км {гроза, ливн. осадки} 8/5 600 м
[Cb calv Ac trans]
+27.0 +18.6 60 +32 +32 очень
душно
1014.5 1014.8
21 26.06 З 1 20 км 4/3 600 м
[Sc diur, vesp Ac trans Ci ing]
+24.5 +18.1 68 +29 +29 душно 1014.2 1014.6
00 27.06 В 1 20 км 8/5 600 м
[Sc diur, vesp Ac trans]
+23.4 +18.0 72 +29 +29 душно 1013.1 1013.4

 

Местоположение метеостанции Комсомольский (Калмыкия, Россия): широта 45.35 долгота 46.03 высота над уровнем моря -2 м.

В архиве по умолчанию представлена погода в Комсомольском за последнюю неделю. Архивные данные за месяц целиком и за предыдущие месяцы, начиная с января 2011 года, Вы можете получить, выбрав интересующий диапазон дат из раскрывающегося списка и нажав кнопку "Ввод!".


*Определитесь, кто Вы:
робот инопланетянин человек

Внимание! Время в таблицах - всемирное. Для получения местного времени необходимо прибавить поправку, которая равна 3 ч.

Смотрите также архив погоды в соседних городах и на ближайших метеорологических станциях:

Погода в Артезиане (Калмыкия, Россия) (70 км)
Погода в Южно-Сухокумске (Дагестан, Россия) (83 км)
Погода в Лагани (Калмыкия, Россия) (103 км)
Погода в Лимане (Астраханская область, Россия) (105 км)
Погода в Яшкуле (Калмыкия, Россия) (106 км)
Погода в Кочубее (Дагестан, Россия) (113 км)
Погода в Утте (Калмыкия, Россия) (113 км)
Погода в Ики-Буруле (Калмыкия, Россия) (120 км)
Погода в Терекли-Мектебе (Дагестан, Россия) (136 км)
Погода в Арзгире (Ставропольский край, Россия) (143 км)

Пояснения к столбцам:

Ветер - указаны скорость ветра в м/с - средняя за 10 мин, порывы в срок и между сроками (в фигурных скобках) и направление, откуда дует ветер: С - северный, СВ - северо-восточный, В - восточный, ЮВ - юго-восточный, Ю - южный, ЮЗ - юго-западный, З - западный, СЗ - северо-западный.
Видимость - горизонтальная дальность видимости в метрах или километрах. При видимости от 1 до 10 км при отсутствии осадков обычно наблюдается дымка, при ухудшении видимости до 1 км и менее - туман. В сухую погоду видимость может ухудшаться дымом, пылью или мглою.
Явления - указаны атмосферные явления, наблюдавшиеся в срок или в последний час перед сроком; фигурными скобками обозначены явления, наблюдавшиеся между сроками (за 1-3 часа до срока); квадратными скобками обозначены град или гололедные отложения с указанием их диаметра в мм.
Облачность - указаны через наклонную черту общая и нижняя облачность в баллах и высота нижней границы облаков в метрах; квадратными скобками обозначены формы облаков: Ci - перистые, Cs - перисто-слоистые, Cc - перисто-кучевые, Ac - высококучевые, As - высокослоистые, Sc - слоисто-кучевые, Ns - слоисто-дождевые, Cu - кучевые, Cb - кучево-дождевые. Подробнее классификацию облаков см. в Атласе облаков (PDF).
T - Температура воздуха - температура, измеренная на высоте 2 м над землей.
Td - Температура точки росы - температура, при понижении до которой содержащийся в воздухе водяной пар достигнет насыщения.
f - Относительная влажность воздуха - влажноcть воздуха, измеренная на высоте 2 м над землей.
Te - Эффективная температура - температура, которую ощущает одетый по сезону человек в тени. Характеристика душности погоды. При расчете учитывается влияние влажности воздуха и скорости ветра на теплоощущения человека.
Tes - Эффективная температура на солнце - температура, которую ощущает человек, с поправкой на солнечный нагрев. Характеристика знойности погоды. Зависит от высоты солнца над горизонтом, облачности и скорости ветра. Ночью, в пасмурную погоду, а также при ветре 12 м/с и более поправка равна нулю.
P - Атмосферное давление - приведенное к уровню моря атмосферное давление.
Po - Атмосферное давление - измеренное на уровне метеостанции атмосферное давление.
Tmin - Минимальная температура - минимум температуры воздуха на высоте 2 м над землей.
Tmax - Максимальная температура - максимум температуры воздуха на высоте 2 м над землей.
R - Количество осадков - Количество выпавших осадков за период времени, мм. При наведении курсора мыши на число - период времени, за который выпало указанное количество осадков.
R24 - Количество осадков - Количество выпавших осадков за 24 часа, мм.
S - Снежный покров - Высота снежного покрова, см. При наведении курсора мыши на число - состояние снежного покрова и степень покрытия местности в баллах.